METEOR 3-5

Satellite information

Favourite Embed

Satellite Type and Status

PAYLOADIN ORBIT

Key statistics

Satellite METEOR 3-5 at a glance.

Uptime

12485

Days in orbit

Revolutions

≈ 13.2

Per day

Orbit

LEO

Low Earth Orbit

Inclination

82.6

Latest

Satellite identification and parameters

Extended collection of information and parameters for METEOR 3-5.

Object identification

Identified? True

Debris? False

Object name: METEOR 3-5

International designator: 1991-056A

Object number (NORAD): 21655

Object ID (CCSDS): 21655

Country: COMMONWEALTH OF INDEPENDENT STATES (CIS)

Current information (Y/N): Y

RCS size: LARGE

Orbital parameters

Period: 109.327 minutes

Inclination: 82.5534 deg

SMA: 7573.758 km

Apoapsis: 1206.013 km

Periapsis: 1185.232 km

RAAN: 309.0966 deg

Eccentricy: 0.00137187

Argument of periapsis: 23.3735 deg

Mean anomaly: 336.8008 deg

Mean motion: 13.17151262 rev/day

Mean motion (dot): -0.00000078 rev/day2

B* drag term: -0.00023387885 1/REarth

Two-line elements (TLE)

Creation date: Oct. 20, 2025, 2:10 a.m.

Reference frame: TEME

Reference center: EARTH

Epoch: Oct. 20, 2025, 12:08 a.m. UTC

TLE line 0: 0 METEOR 3-5

TLE line 1: 1 21655U 91056A 25293.00602187 -.00000078 00000-0 -23388-3 0 9999

TLE line 2: 2 21655 82.5534 309.0966 0013719 23.3735 336.8008 13.17151262642958

Live tracking on map

Real-time ground track for satellite METEOR 3-5.

In-orbit conjunctions

A list of the most updated potential collisions computed for object METEOR 3-5.

Target Orbit TCA Probability of collision Miss distance Type
SL-14 DEB LEO 2025-05-20 22:47:38 0.000122081 782.0 (m) DEBRIS
SL-14 DEB LEO 2025-03-20 07:21:40 0.0001417797 276.0 (m) DEBRIS
DELTA 1 DEB SSO 2025-01-11 07:25:25 0.003293187 24.0 (m) DEBRIS

Associated space launch

Third generation meteorological satellite

METEOR 3-5 was lifted into orbit during the mission ‘Tsiklon-3 | Meteor-3 5’, on board a Tsiklon-3 space rocket.

The launch took place on Aug. 15, 1991, 9:15 a.m. from 32/2.

For more information about the launch, click the button.

Launch to space Tsiklon-3 | Meteor-3 5
Tsiklon-3 | Meteor-3 5

Agency: N/A

Status: Launch Successful

Launch date: Aug. 15, 1991, 9:15 a.m. UTC

Rocket: Tsiklon-3

Launch pad: 32/2

Location: Plesetsk Cosmodrome, Russian Federation

...

Latest news about this satellite

There are no fresh news available about this satellite. Check back as we update our databases every day.


Newsletter sign-up

Weekly statistics, charts and insights to help you stay on top of the space industry.